Time,TemperatureF,DewpointF,PressureIn,WindDirection,WindDirectionDegrees,WindSpeedMPH,WindSpeedGustMPH,Humidity,HourlyPrecipIn,Conditions,Clouds,dailyrainin,SoftwareType,DateUTC
2013-05-14 00:03:00,46.0,29.0,-100.00,ENE,65,1.0,2.0,50,0.00,,,-99.99,,2013-05-14 04:03:00,
2013-05-14 00:13:00,46.0,29.0,-100.00,NE,55,0.0,2.0,53,0.00,,,-99.99,,2013-05-14 04:13:00,
2013-05-14 00:23:00,45.0,27.0,-100.00,East,85,1.0,3.0,49,0.00,,,-99.99,,2013-05-14 04:23:00,
2013-05-14 00:32:00,46.0,27.0,-100.00,East,80,0.0,2.0,47,0.00,,,-99.99,,2013-05-14 04:32:00,
2013-05-14 00:43:00,46.0,26.0,-100.00,East,85,1.0,2.0,45,0.00,,,-99.99,,2013-05-14 04:43:00,
2013-05-14 00:52:00,46.0,26.0,-100.00,East,85,1.0,2.0,45,0.00,,,-99.99,,2013-05-14 04:52:00,
2013-05-14 01:02:00,46.0,26.0,-100.00,East,90,3.0,5.0,45,0.00,,,-99.99,,2013-05-14 05:02:00,
2013-05-14 01:12:00,46.0,27.0,-100.00,East,95,2.0,4.0,47,0.00,,,-99.99,,2013-05-14 05:12:00,
2013-05-14 01:22:00,46.0,27.0,-100.00,East,95,2.0,4.0,47,0.00,,,-99.99,,2013-05-14 05:22:00,
2013-05-14 01:32:00,46.0,27.0,-100.00,East,95,2.0,4.0,47,0.00,,,-99.99,,2013-05-14 05:32:00,
2013-05-14 01:42:00,46.0,27.0,-100.00,East,95,2.0,4.0,47,0.00,,,-99.99,,2013-05-14 05:42:00,
2013-05-14 01:52:00,45.0,27.0,-100.00,East,100,3.0,4.0,49,0.00,,,-99.99,,2013-05-14 05:52:00,
2013-05-14 02:01:00,45.0,27.0,-100.00,East,90,2.0,4.0,49,0.00,,,-99.99,,2013-05-14 06:01:00,
2013-05-14 02:13:00,45.0,27.0,-100.00,East,95,2.0,4.0,49,0.00,,,-99.99,,2013-05-14 06:13:00,
2013-05-14 02:22:00,45.0,28.0,-100.00,East,90,2.0,4.0,50,0.00,,,-99.99,,2013-05-14 06:22:00,
2013-05-14 02:32:00,45.0,28.0,-100.00,East,90,2.0,4.0,50,0.00,,,-99.99,,2013-05-14 06:32:00,
2013-05-14 02:42:00,45.0,28.0,-100.00,East,95,3.0,6.0,49,0.00,,,-99.99,,2013-05-14 06:42:00,
2013-05-14 02:51:00,46.0,29.0,-100.00,East,95,2.0,4.0,51,0.00,,,-99.99,,2013-05-14 06:51:00,
2013-05-14 03:02:00,46.0,28.0,-100.00,ESE,105,2.0,4.0,48,0.00,,,-99.99,,2013-05-14 07:02:00,
2013-05-14 03:11:00,46.0,27.0,-100.00,East,85,4.0,6.0,46,0.00,,,-99.99,,2013-05-14 07:11:00,
2013-05-14 03:21:00,47.0,27.0,-100.00,ESE,115,3.0,7.0,45,0.00,,,-99.99,,2013-05-14 07:21:00,
2013-05-14 03:32:00,47.0,27.0,-100.00,ESE,120,4.0,6.0,44,0.00,,,-99.99,,2013-05-14 07:32:00,
2013-05-14 03:42:00,47.0,26.0,-100.00,ESE,110,3.0,7.0,44,0.00,,,-99.99,,2013-05-14 07:42:00,
2013-05-14 03:52:00,47.0,26.0,-100.00,ESE,120,4.0,8.0,43,0.00,,,-99.99,,2013-05-14 07:52:00,
2013-05-14 04:02:00,47.0,27.0,-100.00,ESE,120,4.0,7.0,44,0.00,,,-99.99,,2013-05-14 08:02:00,
2013-05-14 04:11:00,47.0,26.0,-100.00,ESE,120,4.0,10.0,44,0.00,,,-99.99,,2013-05-14 08:11:00,
2013-05-14 04:21:00,47.0,26.0,-100.00,ESE,120,4.0,10.0,44,0.00,,,-99.99,,2013-05-14 08:21:00,
2013-05-14 04:32:00,47.0,27.0,-100.00,South,170,6.0,12.0,45,0.00,,,-99.99,,2013-05-14 08:32:00,
2013-05-14 04:42:00,47.0,27.0,-100.00,South,170,6.0,12.0,45,0.00,,,-99.99,,2013-05-14 08:42:00,
2013-05-14 04:52:00,47.0,28.0,-100.00,SE,140,6.0,10.0,46,0.00,,,-99.99,,2013-05-14 08:52:00,
2013-05-14 05:02:00,47.0,28.0,-100.00,SE,140,6.0,10.0,46,0.00,,,-99.99,,2013-05-14 09:02:00,
2013-05-14 05:11:00,47.0,29.0,-100.00,SE,125,4.0,9.0,48,0.00,,,-99.99,,2013-05-14 09:11:00,
2013-05-14 05:22:00,47.0,28.0,-100.00,ESE,115,4.0,9.0,48,0.00,,,-99.99,,2013-05-14 09:22:00,
2013-05-14 05:32:00,47.0,29.0,-100.00,ESE,110,6.0,9.0,48,0.00,,,-99.99,,2013-05-14 09:32:00,
2013-05-14 05:44:00,47.0,29.0,-100.00,ESE,120,4.0,9.0,48,0.00,,,-99.99,,2013-05-14 09:44:00,
2013-05-14 05:54:00,47.0,29.0,-100.00,SE,130,4.0,8.0,49,0.00,,,-99.99,,2013-05-14 09:54:00,
2013-05-14 06:05:00,47.0,29.0,-100.00,ESE,120,4.0,9.0,49,0.00,,,-99.99,,2013-05-14 10:05:00,
2013-05-14 06:14:00,47.0,30.0,-100.00,SE,130,4.0,8.0,50,0.00,,,-99.99,,2013-05-14 10:14:00,
2013-05-14 06:25:00,47.0,30.0,-100.00,SE,130,4.0,9.0,50,0.00,,,-99.99,,2013-05-14 10:25:00,
2013-05-14 06:33:00,47.0,30.0,-100.00,SE,130,3.0,9.0,50,0.00,,,-99.99,,2013-05-14 10:33:00,
2013-05-14 06:42:00,47.0,30.0,-100.00,SE,130,3.0,9.0,50,0.00,,,-99.99,,2013-05-14 10:42:00,
2013-05-14 06:52:00,47.0,31.0,-100.00,ESE,105,3.0,9.0,52,0.00,,,-99.99,,2013-05-14 10:52:00,
2013-05-14 07:03:00,47.0,31.0,-100.00,ESE,105,3.0,9.0,52,0.00,,,-99.99,,2013-05-14 11:03:00,
2013-05-14 07:11:00,47.0,31.0,-100.00,SE,130,5.0,9.0,53,0.00,,,-99.99,,2013-05-14 11:11:00,
2013-05-14 07:22:00,47.0,31.0,-100.00,SE,130,5.0,9.0,53,0.00,,,-99.99,,2013-05-14 11:22:00,
2013-05-14 07:32:00,48.0,31.0,-100.00,ESE,115,4.0,10.0,53,0.00,,,-99.99,,2013-05-14 11:32:00,
2013-05-14 07:43:00,48.0,31.0,-100.00,SE,140,4.0,11.0,53,0.00,,,-99.99,,2013-05-14 11:43:00,
2013-05-14 07:52:00,47.0,33.0,-100.00,ESE,120,3.0,9.0,56,0.00,,,-99.99,,2013-05-14 11:52:00,
2013-05-14 08:03:00,48.0,32.0,-100.00,ESE,110,5.0,9.0,54,0.00,,,-99.99,,2013-05-14 12:03:00,
2013-05-14 08:12:00,48.0,32.0,-100.00,ESE,110,4.0,8.0,53,0.00,,,-99.99,,2013-05-14 12:12:00,
2013-05-14 08:21:00,48.0,32.0,-100.00,ESE,110,4.0,8.0,53,0.00,,,-99.99,,2013-05-14 12:21:00,
2013-05-14 08:32:00,49.0,33.0,-100.00,SE,130,4.0,9.0,53,0.00,,,-99.99,,2013-05-14 12:32:00,
2013-05-14 08:42:00,49.0,32.0,-100.00,SSE,150,4.0,9.0,52,0.00,,,-99.99,,2013-05-14 12:42:00,
2013-05-14 08:52:00,49.0,32.0,-100.00,SSE,150,4.0,9.0,52,0.00,,,-99.99,,2013-05-14 12:52:00,
2013-05-14 09:01:00,49.0,33.0,-100.00,ESE,110,6.0,11.0,52,0.00,,,-99.99,,2013-05-14 13:01:00,
2013-05-14 09:11:00,49.0,33.0,-100.00,ESE,120,6.0,14.0,54,0.00,,,-99.99,,2013-05-14 13:11:00,
2013-05-14 09:22:00,49.0,33.0,-100.00,ESE,115,7.0,14.0,53,0.00,,,-99.99,,2013-05-14 13:22:00,
2013-05-14 09:32:00,50.0,34.0,-100.00,ESE,110,6.0,12.0,52,0.00,,,-99.99,,2013-05-14 13:32:00,
2013-05-14 09:41:00,51.0,34.0,-100.00,ESE,115,9.0,14.0,52,0.00,,,-99.99,,2013-05-14 13:41:00,
2013-05-14 09:52:00,52.0,34.0,-100.00,SSE,150,7.0,12.0,50,0.00,,,-99.99,,2013-05-14 13:52:00,
2013-05-14 10:01:00,53.0,35.0,-100.00,SSE,160,6.0,15.0,49,0.00,,,-99.99,,2013-05-14 14:01:00,
2013-05-14 10:11:00,54.0,34.0,-100.00,SE,135,9.0,12.0,47,0.00,,,-99.99,,2013-05-14 14:11:00,
2013-05-14 10:22:00,55.0,34.0,-100.00,SE,140,10.0,16.0,45,0.00,,,-99.99,,2013-05-14 14:22:00,
2013-05-14 10:32:00,55.0,34.0,-100.00,SE,140,10.0,16.0,45,0.00,,,-99.99,,2013-05-14 14:32:00,
2013-05-14 10:42:00,57.0,33.0,-100.00,SSE,150,11.0,20.0,40,0.00,,,-99.99,,2013-05-14 14:42:00,
2013-05-14 10:52:00,58.0,34.0,-100.00,SE,145,12.0,19.0,40,0.00,,,-99.99,,2013-05-14 14:52:00,
2013-05-14 11:01:00,59.0,33.0,-100.00,East,95,9.0,21.0,37,0.00,,,-99.99,,2013-05-14 15:01:00,
2013-05-14 11:12:00,60.0,33.0,-100.00,ESE,120,6.0,16.0,36,0.00,,,-99.99,,2013-05-14 15:12:00,
2013-05-14 11:22:00,61.0,36.0,-100.00,SE,130,6.0,19.0,39,0.00,,,-99.99,,2013-05-14 15:22:00,
2013-05-14 11:33:00,61.0,33.0,-100.00,SE,130,10.0,19.0,35,0.00,,,-99.99,,2013-05-14 15:33:00,
2013-05-14 11:43:00,61.0,34.0,-100.00,SE,135,7.0,17.0,35,0.00,,,-99.99,,2013-05-14 15:43:00,
2013-05-14 11:53:00,62.0,37.0,-100.00,ESE,120,9.0,16.0,38,0.00,,,-99.99,,2013-05-14 15:53:00,
2013-05-14 12:02:00,63.0,35.0,-100.00,SSE,155,7.0,19.0,35,0.00,,,-99.99,,2013-05-14 16:02:00,
2013-05-14 12:12:00,64.0,36.0,-100.00,South,170,6.0,16.0,35,0.00,,,-99.99,,2013-05-14 16:12:00,
2013-05-14 12:23:00,63.0,35.0,-100.00,SE,145,10.0,20.0,34,0.00,,,-99.99,,2013-05-14 16:23:00,
2013-05-14 12:33:00,63.0,35.0,-100.00,SSE,150,13.0,20.0,35,0.00,,,-99.99,,2013-05-14 16:33:00,
2013-05-14 12:43:00,64.0,36.0,-100.00,SE,135,11.0,21.0,34,0.00,,,-99.99,,2013-05-14 16:43:00,
2013-05-14 12:54:00,65.0,37.0,-100.00,SSE,150,11.0,20.0,35,0.00,,,-99.99,,2013-05-14 16:54:00,
2013-05-14 13:03:00,65.0,37.0,-100.00,SSE,160,9.0,22.0,34,0.00,,,-99.99,,2013-05-14 17:03:00,
2013-05-14 13:13:00,65.0,37.0,-100.00,ESE,120,12.0,22.0,35,0.00,,,-99.99,,2013-05-14 17:13:00,
2013-05-14 13:24:00,66.0,40.0,-100.00,ESE,105,9.0,21.0,38,0.00,,,-99.99,,2013-05-14 17:24:00,
2013-05-14 13:33:00,66.0,42.0,-100.00,South,175,11.0,22.0,41,0.00,,,-99.99,,2013-05-14 17:33:00,
2013-05-14 13:43:00,66.0,40.0,-100.00,SE,135,11.0,27.0,38,0.00,,,-99.99,,2013-05-14 17:43:00,
2013-05-14 13:52:00,67.0,41.0,-100.00,SE,140,10.0,21.0,38,0.00,,,-99.99,,2013-05-14 17:52:00,
2013-05-14 14:02:00,67.0,41.0,-100.00,SE,130,13.0,25.0,38,0.00,,,-99.99,,2013-05-14 18:02:00,
2013-05-14 14:22:00,68.0,43.0,-100.00,SSE,165,9.0,21.0,39,0.00,,,-99.99,,2013-05-14 18:22:00,
2013-05-14 14:32:00,68.0,43.0,-100.00,SE,125,9.0,18.0,40,0.00,,,-99.99,,2013-05-14 18:32:00,
2013-05-14 14:42:00,68.0,44.0,-100.00,SE,130,10.0,18.0,42,0.00,,,-99.99,,2013-05-14 18:42:00,
2013-05-14 14:52:00,70.0,43.0,-100.00,SE,145,9.0,17.0,38,0.00,,,-99.99,,2013-05-14 18:52:00,
2013-05-14 15:01:00,69.0,45.0,-100.00,SSE,155,10.0,21.0,42,0.00,,,-99.99,,2013-05-14 19:01:00,
2013-05-14 15:12:00,69.0,45.0,-100.00,SSE,155,10.0,21.0,42,0.00,,,-99.99,,2013-05-14 19:12:00,
2013-05-14 15:22:00,71.0,46.0,-100.00,South,170,7.0,19.0,40,0.00,,,-99.99,,2013-05-14 19:22:00,
2013-05-14 15:32:00,71.0,46.0,-100.00,South,170,7.0,19.0,40,0.00,,,-99.99,,2013-05-14 19:32:00,
2013-05-14 15:42:00,71.0,46.0,-100.00,South,170,7.0,19.0,40,0.00,,,-99.99,,2013-05-14 19:42:00,
2013-05-14 15:53:00,71.0,46.0,-100.00,South,170,9.0,24.0,40,0.00,,,-99.99,,2013-05-14 19:53:00,
2013-05-14 16:02:00,72.0,46.0,-100.00,SE,145,12.0,19.0,39,0.00,,,-99.99,,2013-05-14 20:02:00,
2013-05-14 16:11:00,72.0,46.0,-100.00,SE,145,12.0,19.0,39,0.00,,,-99.99,,2013-05-14 20:11:00,
2013-05-14 16:23:00,72.0,47.0,-100.00,SSE,150,9.0,21.0,40,0.00,,,-99.99,,2013-05-14 20:23:00,
2013-05-14 16:33:00,72.0,47.0,-100.00,SSE,150,9.0,21.0,40,0.00,,,-99.99,,2013-05-14 20:33:00,
2013-05-14 16:44:00,73.0,47.0,-100.00,South,185,7.0,19.0,39,0.00,,,-99.99,,2013-05-14 20:44:00,
2013-05-14 16:52:00,73.0,47.0,-100.00,SSE,150,10.0,22.0,38,0.00,,,-99.99,,2013-05-14 20:52:00,
2013-05-14 17:03:00,74.0,48.0,-100.00,South,180,11.0,22.0,39,0.00,,,-99.99,,2013-05-14 21:03:00,
2013-05-14 17:12:00,74.0,47.0,-100.00,SSE,155,11.0,21.0,38,0.00,,,-99.99,,2013-05-14 21:12:00,
2013-05-14 17:23:00,75.0,48.0,-100.00,SSE,165,8.0,18.0,38,0.00,,,-99.99,,2013-05-14 21:23:00,
2013-05-14 17:33:00,76.0,49.0,-100.00,SSE,165,6.0,16.0,39,0.00,,,-99.99,,2013-05-14 21:33:00,
2013-05-14 17:43:00,76.0,48.0,-100.00,SSW,195,7.0,18.0,37,0.00,,,-99.99,,2013-05-14 21:43:00,
2013-05-14 17:52:00,75.0,49.0,-100.00,South,185,7.0,19.0,40,0.00,,,-99.99,,2013-05-14 21:52:00,
2013-05-14 18:03:00,75.0,49.0,-100.00,SSW,195,8.0,17.0,39,0.00,,,-99.99,,2013-05-14 22:03:00,
2013-05-14 18:13:00,76.0,49.0,-100.00,SSW,195,11.0,19.0,38,0.00,,,-99.99,,2013-05-14 22:13:00,
2013-05-14 18:24:00,76.0,50.0,-100.00,SSW,200,7.0,19.0,40,0.00,,,-99.99,,2013-05-14 22:24:00,
2013-05-14 18:34:00,75.0,49.0,-100.00,South,180,9.0,15.0,39,0.00,,,-99.99,,2013-05-14 22:34:00,
2013-05-14 18:45:00,75.0,51.0,-100.00,SSW,200,6.0,14.0,42,0.00,,,-99.99,,2013-05-14 22:45:00,
2013-05-14 18:54:00,75.0,50.0,-100.00,South,170,7.0,12.0,41,0.00,,,-99.99,,2013-05-14 22:54:00,
2013-05-14 19:03:00,75.0,51.0,-100.00,South,180,6.0,12.0,42,0.00,,,-99.99,,2013-05-14 23:03:00,
2013-05-14 19:12:00,76.0,51.0,-100.00,South,190,5.0,15.0,42,0.00,,,-99.99,,2013-05-14 23:12:00,
2013-05-14 19:21:00,76.0,51.0,-100.00,SSW,200,6.0,12.0,42,0.00,,,-99.99,,2013-05-14 23:21:00,
2013-05-14 19:32:00,75.0,51.0,-100.00,South,185,4.0,8.0,43,0.00,,,-99.99,,2013-05-14 23:32:00,
2013-05-14 19:44:00,75.0,51.0,-100.00,South,185,4.0,8.0,43,0.00,,,-99.99,,2013-05-14 23:44:00,
2013-05-14 19:52:00,75.0,52.0,-100.00,SSE,160,4.0,9.0,45,0.00,,,-99.99,,2013-05-14 23:52:00,
2013-05-14 20:02:00,74.0,53.0,-100.00,SSE,155,4.0,8.0,46,0.00,,,-99.99,,2013-05-15 00:02:00,
2013-05-14 20:11:00,74.0,53.0,-100.00,SSE,155,4.0,8.0,46,0.00,,,-99.99,,2013-05-15 00:11:00,
2013-05-14 20:21:00,73.0,53.0,-100.00,SE,145,4.0,8.0,48,0.00,,,-99.99,,2013-05-15 00:21:00,
2013-05-14 20:32:00,73.0,53.0,-100.00,South,170,3.0,7.0,49,0.00,,,-99.99,,2013-05-15 00:32:00,
2013-05-14 20:42:00,72.0,53.0,-100.00,SE,130,4.0,9.0,50,0.00,,,-99.99,,2013-05-15 00:42:00,
2013-05-14 20:52:00,72.0,53.0,-100.00,SE,135,4.0,11.0,50,0.00,,,-99.99,,2013-05-15 00:52:00,
2013-05-14 21:01:00,72.0,53.0,-100.00,South,180,4.0,10.0,50,0.00,,,-99.99,,2013-05-15 01:01:00,
2013-05-14 21:11:00,72.0,53.0,-100.00,South,185,4.0,10.0,50,0.00,,,-99.99,,2013-05-15 01:11:00,
2013-05-14 21:22:00,72.0,53.0,-100.00,South,185,4.0,10.0,50,0.00,,,-99.99,,2013-05-15 01:22:00,
2013-05-14 21:32:00,72.0,53.0,-100.00,SSE,150,4.0,8.0,52,0.00,,,-99.99,,2013-05-15 01:32:00,
2013-05-14 21:42:00,72.0,53.0,-100.00,SSE,150,4.0,8.0,52,0.00,,,-99.99,,2013-05-15 01:42:00,
2013-05-14 22:02:00,71.0,53.0,-100.00,SSE,150,2.0,7.0,53,0.00,,,-99.99,,2013-05-15 02:02:00,
2013-05-14 22:11:00,71.0,53.0,-100.00,SSE,150,3.0,6.0,54,0.00,,,-99.99,,2013-05-15 02:11:00,
2013-05-14 22:22:00,71.0,53.0,-100.00,SE,145,3.0,7.0,54,0.00,,,-99.99,,2013-05-15 02:22:00,
2013-05-14 22:32:00,71.0,53.0,-100.00,South,170,4.0,7.0,54,0.00,,,-99.99,,2013-05-15 02:32:00,
2013-05-14 22:42:00,70.0,54.0,-100.00,ESE,110,2.0,7.0,55,0.00,,,-99.99,,2013-05-15 02:42:00,
2013-05-14 22:52:00,70.0,54.0,-100.00,ESE,110,2.0,7.0,55,0.00,,,-99.99,,2013-05-15 02:52:00,
2013-05-14 23:01:00,70.0,54.0,-100.00,South,190,4.0,9.0,56,0.00,,,-99.99,,2013-05-15 03:01:00,
2013-05-14 23:12:00,70.0,54.0,-100.00,South,190,4.0,9.0,56,0.00,,,-99.99,,2013-05-15 03:12:00,
2013-05-14 23:22:00,70.0,54.0,-100.00,South,190,4.0,9.0,56,0.00,,,-99.99,,2013-05-15 03:22:00,
2013-05-14 23:33:00,70.0,54.0,-100.00,South,185,6.0,12.0,57,0.00,,,-99.99,,2013-05-15 03:33:00,
2013-05-14 23:44:00,70.0,54.0,-100.00,South,185,6.0,12.0,57,0.00,,,-99.99,,2013-05-15 03:44:00,
2013-05-14 23:54:00,70.0,55.0,-100.00,South,190,6.0,11.0,58,0.00,,,-99.99,,2013-05-15 03:54:00,